Regional Weather Roundup
Issued by NWS

Home | Current Version | Previous Version | Graphics & Text | Print | Product List | Glossary On
Versions: 1 2 3 4 5 6 7 8 9 10 11 12 13 14 15 16 17 18 19 20 21 22 23 24 25 26 27 28 29 30 31 32 33 34 35 36 37 38 39 40 41 42 43 44 45 46 47 48 49 50
000
ASUS43 KMPX 031701
RWRMN
WEATHER ROUNDUP FOR MINNESOTA
NATIONAL WEATHER SERVICE TWIN CITIES/CHANHASSEN MN
1100 AM CST TUE MAR 03 2015


NOTE: "FAIR" INDICATES FEW OR NO CLOUDS BELOW 12,000 FEET WITH NO
SIGNIFICANT WEATHER AND/OR OBSTRUCTIONS TO VISIBILITY. N/A MEANS
CURRENT SKY AND/OR WEATHER CONDITIONS ARE NOT AVAILABLE.

MNZ060>063-068>070-031800-
   Twin Cities Metro

CITY           SKY/WX    TMP DP  RH WIND       PRES   REMARKS
TWIN CITIES    LGT SNOW  26  22  84 SW7       29.68R FOG     WCI  18
ST PAUL        LGT SNOW  26  22  84 W8        29.69S VSB 3/4 WCI  18
CRYSTAL        LGT SNOW  27  23  85 SW7       29.66S FOG     WCI  19
BLAINE         LGT SNOW  27  25  93 SW5       29.66S VSB 3/4 WCI  21
LAKEVILLE      PTSUNNY   27  21  80 W10       29.67R WCI  17
EDEN PRAIRIE   LGT SNOW  27  23  85 SW8       29.67F FOG     WCI  19
SOUTH ST PAUL  LGT SNOW  27  23  82 W7        29.68R WCI  20
LAKE ELMO      LGT SNOW  27  23  86 SW9       29.67S WCI  17
$$
MNZ001>005-007-008-013>017-022>024-027-028-031800-
   Northwest Minnesota

CITY           SKY/WX    TMP DP  RH WIND       PRES   REMARKS
BEMIDJI        CLOUDY    14   6  72 NW29G36   29.71R HAZE    WCI  -7
HALLOCK        CLOUDY     9   1  72 N21       29.85R WCI -11
ROSEAU         MOSUNNY   12   1  62 NW17G25   29.75R WCI  -5
WARROAD        MOSUNNY   10   0  61 NW16G24   29.74R HAZE    WCI  -7
THIEF RVR FALL CLOUDY    10   3  72 NW24      29.80R WCI -10
CROOKSTON      PTSUNNY   10   7  85 NW25G35   29.87R FOG     WCI -10
FOSSTON        CLOUDY    12   3  67 NW20G30   29.79R HAZE    WCI  -6
DETROIT LAKES  LGT SNOW  14  10  85 NW21G32   29.79R WCI  -4
MOORHEAD       PTSUNNY   16   9  73 NW29G36   29.88R WCI  -4
PARK RAPIDS    LGT SNOW  17   8  67 NW22      29.71R WCI   0
MAHNOMEN       CLOUDY    13   8  78 NW23      29.79R HAZE    WCI  -6
$$
MNZ006-009>011-018-025>026-031800-
   North Central Minnesota

CITY           SKY/WX    TMP DP  RH WIND       PRES   REMARKS
BAUDETTE       CLOUDY    12   4  70 NW18G30   29.68R HAZE    WCI  -6
FLAG ISLAND    MOSUNNY    9  -2  61 NW30G36   29.70R HAZE    WCI -14
INTL FALLS     LGT SNOW  17   9  70 W20G29    29.60R WCI   1
WASKISH        CLOUDY    18   9  68 W14G20    29.68S WCI   4
BIG FORK       LGT SNOW  21  14  73 W9G22     29.61R WCI  11
LONGVILLE      CLOUDY    19  10  68 NW17G28   29.66R WCI   4
GRAND RAPIDS   CLOUDY    21  16  79 NW16G24   29.59R WCI   7
CRANE LAKE     LGT SNOW  21  19  93 W7        29.55F WCI  13
ORR            MIX PCPN  21  16  79 NW16G24   29.53S WCI   7
COOK           LGT SNOW  21  19  93 W10       29.54F WCI  10
WALKER         CLOUDY    15   6  66 W22G28    29.67S HAZE    WCI  -3
$$
MNZ012-019>021-037-031800-
   Northeast Minnesota

CITY           SKY/WX    TMP DP  RH WIND       PRES   REMARKS
DULUTH         LGT SNOW  21  16  81 W15       29.56F VSB 3/4 WCI   8
ELY            LGT SNOW  21  18  86 SW9       29.52F WCI  11
HIBBING        LGT SNOW  22  17  81 W6        29.56F VSB 1   WCI  14
EVELETH        LGT SNOW  21  19  93 SW7       29.56F VSB 1   WCI  13
DULUTH HARBOR  LGT SNOW  23  19  86 SW13      29.62F WCI  11
TWO HARBORS    LGT SNOW  25  19  80 SW7       29.56F VSB 1   WCI  17
SILVER BAY     LGT SNOW  23  19  86 SW6       29.55F VSB 1   WCI  16
GRAND MARAIS     N/A     26  24  92 SW24      29.58F WCI  11
G MARAIS ARPRT SNOW      19  16  86 S9G18     29.50F VSB 1/2 WCI   9
$$
MNZ029>031-032-039>041-046>048-054>057-064-031800-
   West Central Minnesota

CITY           SKY/WX    TMP DP  RH WIND       PRES   REMARKS
FERGUS FALLS   SNOW      12   9  85 NW29G35   29.85R VSB 1/2 WCI  -9
WHEATON        LGT SNOW  14   9  79 NW25G32   29.88R WCI  -5
MORRIS         SNOW      18  12  79 NW33      29.80R VSB 1/2 WCI  -3
ALEXANDRIA     LGT SNOW  19  11  70 NW26G35   29.73R WCI   1
ELBOW LAKE     LGT SNOW  14  10  86 NW29G37   29.80R VSB 3/4 WCI  -7
WADENA         CLOUDY    16   9  73 NW25G33   29.73R HAZE    WCI  -3
GLENWOOD       LGT SNOW  19  16  86 NW24G35   29.74R WCI   2
APPLETON       LGT SNOW  19  14  79 NW30      29.83R WCI   0
BENSON         LGT SNOW  19  12  73 N26G37    29.79R WCI   1
ORTONVILLE     LGT SNOW  16   9  73 NW24G37   29.84R WCI  -3
MADISON        LGT SNOW  19  14  79 NW30G38   29.84R VSB 1   WCI   0
WILLMAR        LGT SNOW  23  18  80 NW31      29.74R VSB 3/4 WCI   5
$$
MNZ033>034-036-042>043-049>051-058-059-031800-
   Central Minnesota

CITY           SKY/WX    TMP DP  RH WIND       PRES   REMARKS
ST CLOUD       LGT SNOW  24  20  84 W12       29.66S FOG     WCI  13
SAUK CENTRE    LGT SNOW  20  14  76 NW25G33   29.71R WCI   3
PAYNESVILLE    LGT SNOW  21  17  86 W24G30    29.71R WCI   4
AITKIN         LGT SNOW  27  19  74 W9        29.61S WCI  17
PINE RIVER     CLOUDY    19  12  73 NW13G20   29.70R WCI   7
BRAINERD       LGT SNOW  23  17  78 NW17G29   29.66R WCI   9
STAPLES        CLOUDY    18  10  73 NW16G30   29.70R WCI   3
LITTLE FALLS   LGT SNOW  25  19  80 NW12      29.67R WCI  14
LITCHFIELD     MIX PCPN  27  25  93 W16       29.68S WCI  14
BUFFALO        LGT SNOW  26  21  83 SW8       29.68S WCI  17
MAPLE LAKE     LGT SNOW  27  24  87 W12       29.67S WCI  17
$$
MNZ037-044-045-052-053-031800-
   East Central Minnesota

CITY           SKY/WX    TMP DP  RH WIND       PRES   REMARKS
PRINCETON      LGT SNOW  25  21  86 W6        29.65S WCI  18
MORA           LGT SNOW  23  19  86 W7        29.66S WCI  15
RUSH CITY      MIX PCPN  24  20  86 SW5       29.65F WCI  18
MOOSE LAKE     LGT SNOW  23  18  80 CALM      29.60S
HINCKLEY       LGT SNOW  23  19  86 SW9       29.64F WCI  13
CLOQUET        LGT SNOW  21  16  79 SW12G18   29.58F WCI   9
MCGREGOR       CLOUDY    23  19  86 SW7       29.62S WCI  15
$$
MNZ071>073-080-081-089-090-097-098-031800-
   Southwest Minnesota

CITY           SKY/WX    TMP DP  RH WIND       PRES   REMARKS
MONTEVIDEO     CLOUDY    19  19 100 N30G40    29.80R FOG     WCI   0
GRANITE FALLS  CLOUDY    21  17  83 NW31G39   29.80R HAZE    WCI   2
CANBY          CLOUDY    20  14  76 NW24G32   29.84R HAZE    WCI   3
MARSHALL       CLOUDY    19  12  73 N31G41    29.79R VSB 1   WCI   0
REDWOOD FALLS  LGT SNOW  23  17  78 NW25G37   29.74R WCI   7
OLIVIA         LGT SNOW  21  19  93 NW29G36   29.72R VSB 3/4 WCI   3
PIPESTONE      LGT SNOW  19  16  86 N24G37    29.78R WCI   2
WINDOM         MIX PCPN  23  19  86 NW28G35   29.73R WCI   6
WORTHINGTON    CLOUDY   N/A N/A N/A N29G35    29.77R
JACKSON        CLOUDY    30  23  74 NW24G30   29.71R HAZE    WCI  16
TRACY          SNOW      22  18  83 NW28G36   29.77R VSB 1/2 WCI   4
SLAYTON        PTSUNNY   20  15  80 NW24G35   29.76R HAZE    WCI   3
$$
MNZ065>067-074>077-082>085-091>093-031800-
   South Central Minnesota

CITY           SKY/WX    TMP DP  RH WIND       PRES   REMARKS
MANKATO        CLOUDY    27  21  80 W15       29.69S WCI  15
NEW ULM        CLOUDY    27  23  86 W20       29.70S FOG     WCI  13
ST JAMES       CLOUDY    30  25  80 W18G28    29.72R HAZE    WCI  18
FAIRMONT       PTSUNNY   30  23  74 W22       29.69S WCI  17
GLENCOE        CLOUDY    28  24  87 W10       29.67F FOG     WCI  18
FARIBAULT      LGT SNOW  28  23  80 W12       29.68R WCI  18
OWATONNA       PTSUNNY   27  23  86 W14       29.68R WCI  15
WASECA         LGT SNOW  27  23  86 W15       29.70R WCI  15
ALBERT LEA     CLOUDY    28  27  93 W10G18    29.67R FOG     WCI  19
$$
MNZ078>079-086>088-094>096-031800-
   Southeast Minnesota

CITY           SKY/WX    TMP DP  RH WIND       PRES   REMARKS
ROCHESTER      MIX PCPN  26  22  84 SW14      29.65R FOG     WCI  14
RED WING       LGT SNOW  28  21  74 W8        29.67R WCI  20
STANTON        CLOUDY    29  23  78 W10       29.67R HAZE    WCI  20
DODGE CENTER   CLOUDY    27  25  93 W14       29.66R WCI  15
WINONA         LGT SNOW  30  27  86 CALM      29.67F
AUSTIN         CLOUDY    27  25  93 W12       29.67R FOG     WCI  16
PRESTON        CLOUDY    25  23  95 SW7       29.65R FOG     WCI  17
$$
ABBREVIATIONS USED IN REMARKS
   TC - TEMPERATURES IN CELSIUS
  WCI - WIND CHILL INDEX
   HX - HEAT INDEX
  VSB - VISIBILITY
$$



USA.gov is the U.S. government's official web portal to all federal, state and local government web resources and services.